Weather Roundup
Issued by NWS

Home | Current Version | Previous Version | Graphics & Text | Print | Product List | Glossary Off
Versions: 1 2 3 4 5 6 7 8 9 10 11 12 13 14 15 16 17 18 19 20 21 22 23 24 25 26 27 28 29 30 31 32 33 34 35 36 37 38 39 40 41 42 43 44 45 46 47 48 49 50

000
NZUS93 KARX 302110
HRRWXR

CURRENT HOURLY OBSERVATIONS ACROSS
MUCH OF THE UPPER MISSISSIPPI VALLEY
NATIONAL WEATHER SERVICE LA CROSSE WI
400 PM CDT THU JUL 30 2015


...SOUTHEAST MINNESOTA...


CITY           SKY/WX    TMP DP  RH WIND       PRES   REMARKS
ROCHESTER      SUNNY     80  59  48 NW15      30.09F
ROCHESTER/MAYO FAIR      82  53  37 W17G25    30.07F
WINONA         SUNNY     82  54  36 NW13      30.03F
AUSTIN         SUNNY     84  54  34 NW14      30.09F
ALBERT LEA     SUNNY     82  54  36 W5        30.11S
DODGE CENTER   SUNNY     81  55  41 W16       30.09F
PRESTON        SUNNY     80  55  42 NW17      30.09F
OWATONNA       SUNNY     82  55  39 W13       30.09F
FARIBAULT      SUNNY     82  61  47 W12       30.08F
$$

...ELSEWHERE IN MINNESOTA...


CITY           SKY/WX    TMP DP  RH WIND       PRES   REMARKS
MINNEAPOLIS    SUNNY     84  56  38 NW18      30.04F
INTNL FALLS    MOSUNNY   78  56  46 W18G26    29.88F
DULUTH         MOSUNNY   81  51  35 W18G32    29.94S
RED WING       SUNNY     86  54  32 W12G18    30.02F
REDWOOD FALLS  SUNNY     85  55  35 W12       30.08F
MANKATO        SUNNY     82  54  36 NW13      30.09S
WORTHINGTON    SUNNY     82  57  42 W8        30.14F
FAIRMONT       SUNNY     84  55  37 W7        30.11F
$$

...SOUTHWEST WISCONSIN...


CITY           SKY/WX    TMP DP  RH WIND       PRES   REMARKS
LA CROSSE      SUNNY     86  53  32 W17G26    30.02F
PRAIRIE DU CHI SUNNY     87  50  27 W15G24    30.04F
BOSCOBEL       SUNNY     89  57  33 W15G23    30.03F
LONE ROCK      SUNNY     87  52  29 W17G28    30.02F
PLATTEVILLE    SUNNY     85  56  36 W15G21    30.07S
FORT MC COY    SUNNY     85  48  28 W14G22    30.03S
CAMP DOUGLAS   SUNNY     84  56  38 W18       30.01F
VIROQUA        FAIR      82  55  38 W14       30.06F
WIS DELLS      SUNNY     85  47  26 W14G20    30.02F
$$

...ELSEWHERE IN WISCONSIN...


CITY           SKY/WX    TMP DP  RH WIND       PRES   REMARKS
MILWAUKEE      MOSUNNY   88  51  28 W18G25    29.99F
MADISON        MOSUNNY   86  54  33 NW10      30.01F
GREEN BAY      CLOUDY    81  57  43 NW8       29.93F
EAU CLAIRE     SUNNY     83  56  39 W17       30.00F
BLACK RVR FLS  FAIR      86  52  30 W14       30.01S
MEDFORD        MOSUNNY   78  57  47 W18       30.00S
WAUSAU         PTSUNNY   84  54  35 W21G28    29.96F
WIS RAPIDS     SUNNY     85  51  31 NW16G26   30.00F
MARSHFIELD     MOSUNNY   82  53  36 W15G25    30.00F
RICE LAKE      CLOUDY    77  57  50 W10G18    30.01F
$$

...NORTHEAST IOWA...


CITY           SKY/WX    TMP DP  RH WIND       PRES   REMARKS
DECORAH        SUNNY     82  55  39 NW13G22   30.08S
MASON CITY     SUNNY     86  61  42 W10       30.13S
CHARLES CITY   SUNNY     82  63  51 W13G18    30.11S
OELWEIN        SUNNY     84  64  51 W8G20     30.10F
$$

...ELSEWHERE IN IOWA...


CITY           SKY/WX    TMP DP  RH WIND       PRES   REMARKS
DES MOINES     MOSUNNY   89  54  30 W13       30.13F
IOWA CITY      SUNNY     86  64  47 W15G23    30.10F
FORT DODGE     SUNNY     84  66  54 W7        30.14F
$$

...NORTHERN ILLINOIS...


CITY           SKY/WX    TMP DP  RH WIND       PRES   REMARKS
CHICAGO-OHARE  MOSUNNY   88  51  28 NW22      30.02F
CHICAGO-MIDWAY MOSUNNY   89  51  27 NW14G21   30.03F
MOLINE         SUNNY     89  61  38 W12       30.08F
ROCKFORD       MOSUNNY   88  55  32 NW13G24   30.06F
PEORIA         SUNNY     89  63  41 W12       30.09F HX  90
$$

NOTE: "FAIR" INDICATES FEW OR NO CLOUDS BELOW 12,000 FEET WITH NO
SIGNIFICANT WEATHER AND/OR OBSTRUCTIONS TO VISIBILITY. WIND
SPEEDS ARE IN MILES-PER-HOUR.



USA.gov is the U.S. government's official web portal to all federal, state and local government web resources and services.